When you browse on this site, cookies collect data to enhance your experience and personalize the content and advertising you see.
Visit our Privacy Policy to learn more. By continuing to use the site, you agree to this use of cookies and data.
  • In Sweden
  • List of Countries
  • For 7 days
  • Water Temperature
  • Weather Map
  • Weather Widgets
  • user-avatar
    Login

    Hourly Weather Casablanca

    Today, 18 February, Tuesday

    Time Temperature Precipitation Wind Pressure Humidity
    00:00 +13°C° 0 mm 4 mps 768 mmHg 89%
    01:00 +13°C° 0 mm 3 mps 768 mmHg 88%
    02:00 +12°C° 0 mm 3 mps 767 mmHg 87%
    03:00 +12°C° 0 mm 3 mps 767 mmHg 89%
    04:00 +12°C° 0 mm 3 mps 767 mmHg 90%
    05:00 +13°C° 0 mm 2 mps 767 mmHg 91%
    06:00 +14°C° 0 mm 2 mps 768 mmHg 90%
    07:00 +15°C° 0 mm 2 mps 768 mmHg 88%
    08:00 +16°C° 0 mm 2 mps 768 mmHg 87%
    09:00 +17°C° 0 mm 3 mps 768 mmHg 82%
    10:00 +19°C° 0 mm 3 mps 768 mmHg 78%
    11:00 +20°C° 0 mm 4 mps 768 mmHg 73%
    12:00 +20°C° 0 mm 5 mps 767 mmHg 74%
    13:00 +20°C° 0 mm 5 mps 767 mmHg 75%
    14:00 +20°C° 0 mm 6 mps 767 mmHg 76%
    15:00 +19°C° 0 mm 5 mps 767 mmHg 79%
    16:00 +17°C° 0 mm 5 mps 767 mmHg 82%
    17:00 +16°C° 0 mm 5 mps 767 mmHg 86%
    18:00 +17°C° 0 mm 4 mps 767 mmHg 87%
    19:00 +15°C° 0 mm 4 mps 767 mmHg 88%
    20:00 +15°C° 0 mm 4 mps 767 mmHg 89%
    21:00 +16°C° 0 mm 3 mps 767 mmHg 89%
    22:00 +16°C° 0 mm 3 mps 767 mmHg 89%
    23:00 +16°C° 0 mm 3 mps 767 mmHg 89%

    Tomorrow, 19 February, Wednesday

    Time Temperature Precipitation Wind Pressure Humidity
    00:00 +16°C° 0 mm 3 mps 767 mmHg 88%
    01:00 +16°C° 0 mm 3 mps 766 mmHg 87%
    02:00 +16°C° 0 mm 2 mps 766 mmHg 86%
    03:00 +16°C° 0 mm 2 mps 766 mmHg 86%
    04:00 +16°C° 0 mm 2 mps 765 mmHg 86%
    05:00 +16°C° 0 mm 2 mps 765 mmHg 86%
    06:00 +16°C° 0 mm 2 mps 765 mmHg 84%
    07:00 +18°C° 0 mm 1 mps 765 mmHg 82%
    08:00 +18°C° 0 mm 1 mps 765 mmHg 80%
    09:00 +20°C° 0 mm 1 mps 765 mmHg 74%
    10:00 +21°C° 0 mm 1 mps 764 mmHg 68%
    11:00 +21°C° 0 mm 2 mps 764 mmHg 62%
    12:00 +21°C° 0 mm 3 mps 763 mmHg 64%
    13:00 +21°C° 0 mm 3 mps 763 mmHg 66%
    14:00 +20°C° 0 mm 4 mps 762 mmHg 68%
    15:00 +19°C° 0 mm 4 mps 762 mmHg 73%
    16:00 +18°C° 0 mm 4 mps 762 mmHg 78%
    17:00 +17°C° 0 mm 4 mps 762 mmHg 84%
    18:00 +17°C° 0 mm 3 mps 762 mmHg 86%
    19:00 +16°C° 0 mm 2 mps 762 mmHg 88%
    20:00 +16°C° 0 mm 2 mps 763 mmHg 90%
    21:00 +15°C° 0 mm 1 mps 762 mmHg 89%
    22:00 +15°C° 0 mm 1 mps 762 mmHg 88%
    23:00 +14°C° 0 mm 0 mps 762 mmHg 87%

    Day after tomorrow, 20 February, Thursday

    Time Temperature Precipitation Wind Pressure Humidity
    00:00 +14°C° 0 mm 0 mps 761 mmHg 88%
    01:00 +15°C° 0 mm 1 mps 761 mmHg 89%
    02:00 +15°C° 0 mm 1 mps 761 mmHg 90%
    03:00 +15°C° 0 mm 1 mps 761 mmHg 90%
    04:00 +14°C° 0 mm 1 mps 761 mmHg 91%
    05:00 +14°C° 0 mm 1 mps 761 mmHg 92%
    06:00 +15°C° 0 mm 2 mps 761 mmHg 88%
    07:00 +16°C° 0 mm 2 mps 761 mmHg 85%
    08:00 +17°C° 0 mm 3 mps 761 mmHg 81%
    09:00 +18°C° 0 mm 3 mps 762 mmHg 75%
    10:00 +20°C° 0 mm 4 mps 762 mmHg 68%
    11:00 +22°C° 0 mm 4 mps 762 mmHg 61%
    12:00 +22°C° 0 mm 5 mps 761 mmHg 63%
    13:00 +22°C° 0 mm 5 mps 761 mmHg 64%
    14:00 +22°C° 0 mm 6 mps 760 mmHg 66%
    15:00 +20°C° 0.1 mm 5 mps 760 mmHg 71%
    16:00 +19°C° 0.1 mm 4 mps 760 mmHg 77%
    17:00 +18°C° 0.1 mm 3 mps 760 mmHg 82%
    18:00 +17°C° 0 mm 3 mps 760 mmHg 83%
    19:00 +15°C° 0 mm 4 mps 761 mmHg 84%
    20:00 +14°C° 0 mm 4 mps 761 mmHg 85%
    21:00 +14°C° 0 mm 4 mps 761 mmHg 86%
    22:00 +14°C° 0 mm 5 mps 761 mmHg 87%
    23:00 +13°C° 0 mm 6 mps 761 mmHg 89%

    21 February, Friday

    Time Temperature Precipitation Wind Pressure Humidity
    00:00 +13°C° 0 mm 5 mps 761 mmHg 90%
    01:00 +13°C° 0 mm 5 mps 760 mmHg 90%
    02:00 +13°C° 0 mm 5 mps 760 mmHg 91%
    03:00 +12°C° 0 mm 4 mps 760 mmHg 91%
    04:00 +12°C° 0 mm 3 mps 760 mmHg 91%
    05:00 +13°C° 0 mm 2 mps 760 mmHg 91%
    12:00 +20°C° 0 mm 3 mps 761 mmHg 59%
    13:00 +20°C° 0 mm 4 mps 761 mmHg 61%
    14:00 +20°C° 0 mm 4 mps 760 mmHg 63%
    15:00 +19°C° 0 mm 4 mps 760 mmHg 67%
    16:00 +18°C° 0 mm 4 mps 760 mmHg 71%
    17:00 +17°C° 0 mm 4 mps 761 mmHg 76%
    18:00 +17°C° 0 mm 3 mps 761 mmHg 79%
    19:00 +16°C° 0 mm 2 mps 761 mmHg 83%
    20:00 +16°C° 0 mm 2 mps 762 mmHg 86%
    21:00 +16°C° 0 mm 2 mps 762 mmHg 87%
    22:00 +15°C° 0 mm 2 mps 762 mmHg 88%
    23:00 +15°C° 0 mm 2 mps 762 mmHg 89%

    22 February, Saturday

    Time Temperature Precipitation Wind Pressure Humidity
    00:00 +15°C° 0 mm 2 mps 762 mmHg 88%
    01:00 +14°C° 0 mm 2 mps 762 mmHg 87%
    02:00 +14°C° 0 mm 2 mps 762 mmHg 86%
    03:00 +14°C° 0 mm 2 mps 762 mmHg 81%
    04:00 +14°C° 0 mm 2 mps 762 mmHg 77%
    05:00 +14°C° 0 mm 2 mps 762 mmHg 72%
    06:00 +15°C° 0 mm 2 mps 762 mmHg 64%
    07:00 +16°C° 0 mm 2 mps 763 mmHg 56%
    08:00 +17°C° 0 mm 2 mps 763 mmHg 47%
    09:00 +20°C° 0 mm 2 mps 763 mmHg 42%
    10:00 +23°C° 0 mm 2 mps 763 mmHg 38%
    11:00 +25°C° 0 mm 2 mps 763 mmHg 33%
    12:00 +25°C° 0 mm 3 mps 763 mmHg 34%
    13:00 +25°C° 0 mm 3 mps 762 mmHg 35%
    14:00 +25°C° 0 mm 3 mps 762 mmHg 37%
    15:00 +23°C° 0 mm 4 mps 762 mmHg 43%
    16:00 +22°C° 0 mm 4 mps 762 mmHg 49%
    17:00 +21°C° 0 mm 4 mps 762 mmHg 55%
    18:00 +20°C° 0 mm 4 mps 762 mmHg 55%
    19:00 +19°C° 0 mm 4 mps 763 mmHg 55%
    20:00 +18°C° 0 mm 4 mps 763 mmHg 55%
    21:00 +18°C° 0 mm 3 mps 763 mmHg 54%
    22:00 +18°C° 0 mm 2 mps 763 mmHg 52%
    23:00 +17°C° 0 mm 2 mps 763 mmHg 50%

    23 February, Sunday

    Time Temperature Precipitation Wind Pressure Humidity
    00:00 +17°C° 0 mm 2 mps 763 mmHg 46%
    01:00 +17°C° 0 mm 2 mps 763 mmHg 41%
    02:00 +17°C° 0 mm 2 mps 762 mmHg 36%
    03:00 +17°C° 0 mm 2 mps 762 mmHg 35%
    04:00 +17°C° 0 mm 3 mps 763 mmHg 34%
    05:00 +17°C° 0 mm 3 mps 763 mmHg 33%
    06:00 +18°C° 0 mm 3 mps 763 mmHg 35%
    07:00 +19°C° 0 mm 3 mps 763 mmHg 37%
    08:00 +20°C° 0 mm 2 mps 763 mmHg 39%
    09:00 +23°C° 0 mm 2 mps 763 mmHg 37%
    10:00 +25°C° 0 mm 2 mps 764 mmHg 35%
    11:00 +27°C° 0 mm 2 mps 764 mmHg 33%
    12:00 +27°C° 0 mm 2 mps 763 mmHg 34%
    13:00 +27°C° 0 mm 2 mps 763 mmHg 36%
    14:00 +27°C° 0 mm 2 mps 763 mmHg 38%
    15:00 +26°C° 0 mm 2 mps 763 mmHg 39%
    16:00 +25°C° 0 mm 2 mps 763 mmHg 41%
    17:00 +24°C° 0 mm 2 mps 764 mmHg 42%
    18:00 +24°C° 0 mm 3 mps 764 mmHg 40%
    19:00 +22°C° 0 mm 3 mps 764 mmHg 39%
    20:00 +22°C° 0 mm 4 mps 765 mmHg 37%
    21:00 +22°C° 0 mm 4 mps 764 mmHg 37%
    22:00 +22°C° 0 mm 5 mps 764 mmHg 38%
    23:00 +22°C° 0 mm 6 mps 764 mmHg 38%
    Show more